Location: Kalwaria Zebrzydowska
(49.8686°N, 19.6647°E)
Time: 21:32:47
(UTC+01:00)

ISS - Pass Details

Date: 01 February 2019
Orbit: 403 x 411 km, 51.6° (Epoch: 22 February)

Event Time Altitude Azimuth Distance (km) Brightness Sun altitude
Rises 17:18:52 0° 267° (W) 2,331 1.9 -7.3°
Reaches altitude 10° 17:20:58 10° 271° (W) 1,473 0.4 -7.7°
Maximum altitude 17:24:15 65° 353° (N) 457 -3.6 -8.2°
Enters shadow 17:27:15 12° 76° (ENE) 1,358 -1.9 -8.6°
